User: anonymous   Login
Location: Unspecified
(0.0000°N, 0.0000°E)
Time: 00:13:39
(UTC+00:00)
Language:

Hispasat 1B - Orbit

View from above orbital plane
View from above orbital plane
View from above satellite
View from above satellite

Ground track
Ground track

The orbit data is extracted from the following two-line orbital elements,

1 22723U 93048A   18111.92470953 +.00000071 +00000-0 +00000-0 0  9999
2 22723 011.2094 034.5739 0009054 254.9672 314.7662 00.99718039090137
Epoch (UTC): 21 April 2018 22:11:34
Eccentricity: 0.0009054
inclination: 11.2094°
perigee height: 35904 km
apogee height: 35980 km
right ascension of ascending node: 34.5739°
argument of perigee: 254.9672°
revolutions per day: 0.99718039
mean anomaly at epoch: 314.7662°
orbit number at epoch: 9013

The dashed part of the orbit path shows where the satellite is in the earth's shadow,  

DLR